Location: Unspecified
(49.2170°N, 0.0000°E)
Time: 19:29:51
(UTC+00:00)

Tiros 1 despin weight - Pass Details

Date: 29 January 2021
Orbit: 593 x 642 km, 48.2° (Epoch: 26 February)

Event Time Altitude Azimuth Distance (km) Brightness Sun altitude
Rises 18:15:38 0° 281° (W) 2,867 ? -13.7°
Reaches altitude 10° 18:18:23 10° 265° (W) 1,950 ? -14.2°
Maximum altitude 18:21:44 21° 217° (SW) 1,357 ? -14.7°
Drops below altitude 10° 18:25:03 10° 168° (SSE) 1,925 ? -15.2°
Sets 18:27:45 0° 152° (SSE) 2,819 ? -15.7°
